Pecs, Hungary

8:09 AM CEST on June 28, 2017 (GMT +0200)
Pecs

Weather History for LHPP - April, 2013

Change the Weather History Date:

Friday, April 26, 2013

  Actual Average Record
Temperature  
Mean Temperature 68 °F -  
Max Temperature 79 °F 69 °F - ()
Min Temperature 57 °F 50 °F - ()
Cooling Degree Days 3    
Growing Degree Days 18 (Base 50)    
Moisture  
Dew Point 47 °F    
Average Humidity 42    
Maximum Humidity 63    
Minimum Humidity 25    
Precipitation  
Precipitation 0.00 in 0.08 in - ()
Sea Level Pressure  
Sea Level Pressure 30.01 in    
Wind  
Wind Speed 4 mph ()    
Max Wind Speed 12 mph    
Max Gust Speed -    
T = Trace of Precipitation, MM = Missing Value Source: Averaged Metar Reports

Daily Weather History Graph

Daily Weather History Graph

Search for Another Location

Airport or City:

Trip Planner

Search our weather history database for the weather conditions in past years. The results will help you decide how hot, cold, wet, or windy it might be!

Date:

Astronomy

Apr. 26, 2013 Rise Set
Actual Time 5:41 AM CEST 7:48 PM CEST
Civil Twilight 5:09 AM CEST 8:21 PM CEST
Nautical Twilight 4:29 AM CEST 9:01 PM CEST
Astronomical Twilight 3:45 AM CEST 9:46 PM CEST
Moon 8:54 PM CEST (4/26) 5:53 AM CEST (4/26)
Length of Visible Light 15h 11m
Length of Day
14h 06m
Full, 100% of the Moon is Illuminated
Apr 26
Full
May 2
Last Quarter
May 10
New
May 18
First Quarter
May 25
Full

Hourly Weather History & Observations

Time (CEST) Temp. Dew Point Humidity Pressure Visibility Wind Dir Wind Speed Gust Speed Precip Events Conditions
12:45 AM 57.2 °F 44.6 °F 63% 30.18 in - South 2.3 mph - N/A   Clear
1:45 AM 57.2 °F 42.8 °F 59% 30.15 in - East 4.6 mph - N/A   Clear
2:00 AM 57 °F 42 °F 47% 30.16 in 37 mi East 4.5 mph - -   Partly Cloudy
2:45 AM 60.8 °F 41.0 °F 48% 30.15 in - East 3.5 mph - N/A   Clear
3:45 AM 60.8 °F 42.8 °F 52% 30.12 in - NE 3.5 mph - N/A   Clear
4:45 AM 60.8 °F 42.8 °F 52% 30.12 in - ENE 2.3 mph - N/A   Clear
5:45 AM 59.0 °F 42.8 °F 55% 30.09 in - East 3.5 mph - N/A   Clear
6:15 AM 59.0 °F 42.8 °F 55% 30.12 in - ENE 3.5 mph - N/A   Clear
6:45 AM 60.8 °F 44.6 °F 55% 30.09 in - East 3.5 mph - N/A   Clear
7:00 AM - - N/A% - - Variable 3.5 mph - N/A   Clear
7:15 AM 62.6 °F 48.2 °F 59% 30.09 in - East 3.5 mph - N/A   Clear
7:45 AM 64.4 °F 48.2 °F 56% 30.09 in - East 2.3 mph - N/A   Clear
8:00 AM 65 °F 49 °F 45% 30.09 in 37 mi East 2.2 mph - -   Partly Cloudy
8:15 AM 66.2 °F 48.2 °F 52% 30.09 in - ESE 2.3 mph - N/A   Clear
8:45 AM 69.8 °F 50.0 °F 49% 30.09 in - Calm Calm - N/A   Clear
9:15 AM 71.6 °F 48.2 °F 43% 30.09 in - SSE 2.3 mph - N/A   Clear
9:45 AM 71.6 °F 46.4 °F 41% 30.09 in - SSW 5.8 mph - N/A   Clear
10:00 AM - - N/A% - - Variable 3.5 mph - N/A   Clear
10:15 AM 73.4 °F 50.0 °F 44% 30.09 in - SW 5.8 mph - N/A   Clear
10:45 AM 73.4 °F 48.2 °F 41% 30.09 in - WSW 4.6 mph - N/A   Clear
11:15 AM 75.2 °F 46.4 °F 36% 30.06 in - WSW 3.5 mph - N/A   Clear
11:45 AM 77.0 °F 50.0 °F 39% 30.06 in - WSW 3.5 mph - N/A   Clear
12:15 PM 77.0 °F 50.0 °F 39% 30.04 in - SW 4.6 mph - N/A   Clear
12:45 PM 77.0 °F 50.0 °F 39% 30.04 in - South 4.6 mph - N/A   Clear
1:00 PM - - N/A% - - WSW 5.8 mph - N/A   Clear
1:15 PM 78.8 °F 50.0 °F 36% 30.01 in - SSW 6.9 mph - N/A   Clear
1:45 PM 78.8 °F 51.8 °F 39% 30.01 in - SSW 8.1 mph - N/A   Clear
2:00 PM 79 °F 51 °F 27% 29.97 in 31 mi SSW 6.7 mph - -   Partly Cloudy
2:15 PM 78.8 °F 48.2 °F 34% 29.98 in - South 9.2 mph - N/A   Clear
2:45 PM 78.8 °F 48.2 °F 34% 29.98 in - SW 11.5 mph - N/A   Clear
3:15 PM 78.8 °F 50.0 °F 36% 29.98 in - SW 11.5 mph - N/A   Clear
3:45 PM 78.8 °F 50.0 °F 36% 29.95 in - SW 6.9 mph - N/A   Clear
4:00 PM - - N/A% - - SW 11.5 mph - N/A   Clear
4:15 PM 78.8 °F 48.2 °F 34% 29.95 in - SW 8.1 mph - N/A   Clear
4:45 PM 78.8 °F 48.2 °F 34% 29.92 in - SW 8.1 mph - N/A   Clear
5:15 PM 78.8 °F 48.2 °F 34% 29.92 in - WSW 6.9 mph - N/A   Clear
5:45 PM 77.0 °F 48.2 °F 36% 29.89 in - WSW 6.9 mph - N/A   Clear
6:15 PM 77.0 °F 48.2 °F 36% 29.89 in - WSW 4.6 mph - N/A   Clear
6:45 PM 75.2 °F 48.2 °F 38% 29.86 in - WSW 4.6 mph - N/A   Clear
7:15 PM 73.4 °F 46.4 °F 38% 29.86 in - West 5.8 mph - N/A   Clear
7:45 PM 73.4 °F 44.6 °F 36% 29.86 in - West 3.5 mph - N/A   Clear
8:00 PM 73 °F 45 °F 25% 29.85 in 31 mi West 4.5 mph - -   Partly Cloudy
8:15 PM 71.6 °F 42.8 °F 35% 29.86 in - WSW 3.5 mph - N/A   Clear
8:45 PM 68.0 °F 42.8 °F 40% 29.86 in - SW 3.5 mph - N/A   Clear
9:15 PM 69.8 °F 42.8 °F 38% 29.86 in - SSW 2.3 mph - N/A   Clear
9:45 PM 71.6 °F 42.8 °F 35% 29.86 in - SW 4.6 mph - N/A   Clear
10:45 PM 69.8 °F 41.0 °F 35% 29.86 in - SW 9.2 mph - N/A   Clear
11:45 PM 66.2 °F 42.8 °F 43% 29.86 in - WSW 5.8 mph - N/A   Clear